GW4661 Weather Reports


time (UTC)temp
C
wind
direction
speed
KPH
gust
KPH
rain 1hr
cm
rain 24hr
cm
rain mn
cm
humidity
%
barometer
mb
20260505082010 12 0 0.0 3.2 0.00 0.00 0.00 89 1011.9
20260505081528 12 0 0.0 1.6 0.00 0.00 0.00 89 1011.9
20260505081011 12 0 0.0 1.6 0.00 0.00 0.00 89 1011.9
20260505080510 12 0 0.0 1.6 0.00 0.00 0.00 88 1012.0
20260505080029 12 0 0.0 1.6 0.00 0.00 0.00 89 1011.9
20260505075507 12 0 0.0 1.6 0.00 0.00 0.00 88 1011.9
20260505075007 12 0 0.0 1.6 0.00 0.00 0.00 87 1011.8
20260505074530 12 0 0.0 1.6 0.00 0.00 0.00 88 1011.9
20260505074008 12 0 0.0 1.6 0.00 0.00 0.00 88 1011.9
20260505073508 12 0 0.0 1.6 0.00 0.00 0.00 88 1011.8
20260505073033 12 0 0.0 1.6 0.00 0.00 0.00 88 1011.8
20260505072510 12 0 0.0 1.6 0.00 0.00 0.00 89 1011.8
20260505072015 12 0 0.0 1.6 0.00 0.00 0.00 89 1011.8
20260505071531 12 0 0.0 1.6 0.00 0.00 0.00 88 1011.8
20260505071011 12 0 0.0 0.0 0.00 0.00 0.00 88 1011.8
20260505070803 12 0 0.0 1.6 0.00 0.00 0.00 87 1011.8
20260505070039 12 0 0.0 1.6 0.00 0.00 0.00 87 1011.9
20260505065516 12 0 0.0 1.6 0.00 0.00 0.00 87 1011.7
20260505065010 12 0 0.0 3.2 0.00 0.00 0.00 87 1011.7
20260505064528 13 0 0.0 3.2 0.00 0.00 0.00 86 1011.7
20260505064015 13 0 0.0 8.0 0.00 0.00 0.00 86 1011.7
20260505063509 13 123 0.0 8.0 0.00 0.00 0.00 86 1011.7
20260505063032 13 165 0.0 6.4 0.00 0.00 0.00 85 1011.8
20260505062513 13 0 0.0 3.2 0.00 0.00 0.00 85 1011.8
20260505062011 13 0 0.0 3.2 0.00 0.00 0.00 85 1011.8
20260505061531 13 0 0.0 3.2 0.00 0.00 0.00 85 1011.8
20260505061011 13 242 0.0 4.8 0.00 0.00 0.00 85 1011.9
20260505060510 13 0 0.0 4.8 0.00 0.00 0.00 84 1011.8
20260505060036 13 113 0.0 6.4 0.00 0.00 0.00 84 1011.8
20260505055511 13 172 0.0 6.4 0.00 0.00 0.00 84 1011.8
20260505055011 13 198 0.0 4.8 0.00 0.00 0.00 85 1011.9
20260505054530 13 173 0.0 4.8 0.00 0.00 0.00 85 1011.9
20260505054017 13 0 0.0 4.8 0.00 0.00 0.00 86 1011.9
20260505053515 13 206 0.0 4.8 0.00 0.00 0.00 85 1012.0
20260505053047 13 0 0.0 3.2 0.00 0.00 0.00 85 1012.0
20260505052511 13 0 0.0 3.2 0.00 0.00 0.00 86 1012.1
20260505052009 12 0 0.0 4.8 0.00 0.00 0.00 86 1012.0
20260505051530 12 166 0.0 4.8 0.00 0.00 0.00 87 1012.1
20260505051010 12 149 0.0 3.2 0.00 0.00 0.00 86 1012.1
20260505050511 12 0 0.0 3.2 0.00 0.00 0.00 86 1012.2
20260505041530 13 0 0.0 3.2 0.00 0.00 0.00 83 1012.4
20260505041008 13 0 0.0 3.2 0.00 0.00 0.00 83 1012.3
20260505040510 13 142 0.0 3.2 0.00 0.00 0.00 82 1012.3
20260505040028 13 0 0.0 4.8 0.00 0.00 0.00 82 1012.3
20260505035508 13 0 0.0 4.8 0.00 0.00 0.00 81 1012.2
20260505035015 13 0 0.0 3.2 0.00 0.00 0.00 80 1012.2
20260505034532 13 175 0.0 3.2 0.00 0.00 0.00 81 1012.1
20260505034008 13 0 0.0 1.6 0.00 0.00 0.00 81 1012.2
20260505033601 13 0 0.0 3.2 0.00 0.00 0.00 80 1012.3
20260505033030 13 0 0.0 3.2 0.00 0.00 0.00 79 1012.3
20260505032511 13 0 0.0 3.2 0.00 0.00 0.00 78 1012.3
20260505032011 13 0 0.0 6.4 0.00 0.00 0.00 77 1012.3
20260505031530 13 0 0.0 6.4 0.00 0.00 0.00 77 1012.3
20260505031012 13 167 0.0 3.2 0.00 0.00 0.00 76 1012.3
20260505030510 13 0 0.0 3.2 0.00 0.00 0.00 76 1012.5
20260505030145 13 127 0.0 3.2 0.00 0.00 0.00 76 1012.4
20260505025509 13 0 0.0 3.2 0.00 0.00 0.00 75 1012.4
20260505025009 13 148 0.0 3.2 0.00 0.00 0.00 75 1012.4
20260505024529 14 0 0.0 4.8 0.00 0.00 0.00 74 1012.5
20260505024009 14 0 0.0 4.8 0.00 0.00 0.00 73 1012.4
20260505023507 14 0 0.0 3.2 0.00 0.00 0.00 73 1012.4
20260505023027 14 0 0.0 3.2 0.00 0.00 0.00 74 1012.4
20260505022507 14 200 0.0 3.2 0.00 0.00 0.00 73 1012.5
20260505022013 14 0 0.0 3.2 0.00 0.00 0.00 72 1012.5
20260505021529 15 131 0.0 3.2 0.00 0.00 0.00 72 1012.7
20260505021008 14 156 0.0 4.8 0.00 0.00 0.00 72 1012.7
20260505020633 14 130 0.0 4.8 0.00 0.00 0.00 72 1012.6
20260505014010 14 0 0.0 3.2 0.00 0.00 0.00 72 1012.6
20260505013508 13 0 0.0 1.6 0.00 0.00 0.00 72 1012.5
20260505013027 14 0 0.0 1.6 0.00 0.00 0.00 71 1012.5
20260505012509 14 0 0.0 1.6 0.00 0.00 0.00 71 1012.4
20260505012010 14 0 0.0 1.6 0.00 0.00 0.00 70 1012.4
20260505011732 15 0 0.0 1.6 0.00 0.00 0.00 70 1012.3
20260505011012 15 0 0.0 3.2 0.00 0.00 0.00 68 1012.1
20260505010514 15 0 0.0 3.2 0.00 0.00 0.00 67 1012.1
20260505010029 15 0 0.0 3.2 0.00 0.00 0.00 67 1012.1
20260505005516 15 0 0.0 4.8 0.00 0.00 0.00 67 1012.1
20260505005010 16 340 0.0 6.4 0.00 0.00 0.00 66 1012.1
20260505004530 16 191 0.0 6.4 0.00 0.00 0.00 66 1012.1
20260505004012 16 131 0.0 4.8 0.00 0.00 0.00 66 1012.0
20260505003608 15 107 0.0 4.8 0.00 0.00 0.00 67 1012.0
20260505003028 16 0 0.0 6.4 0.00 0.00 0.00 67 1012.0
20260505002507 16 154 0.0 6.4 0.00 0.00 0.00 67 1011.8
20260505002016 16 0 0.0 3.2 0.00 0.00 0.00 67 1011.8
20260505001528 16 148 0.0 3.2 0.00 0.00 0.00 67 1011.8
20260505001015 16 0 0.0 3.2 0.00 0.00 0.00 66 1011.8
20260505000721 16 0 0.0 3.2 0.00 0.00 0.00 67 1011.7
20260505000322 16 157 0.0 3.2 0.00 0.00 0.00 66 1011.6
20260504235510 16 0 0.0 6.4 0.00 0.00 0.00 65 1011.7
20260504235011 17 138 0.0 6.4 0.00 0.00 0.00 64 1011.6
20260504234928 17 143 0.0 4.8 0.00 0.00 0.00 64 1011.6
20260504233510 17 136 1.6 6.4 0.00 0.00 0.00 63 1011.4
20260504233028 17 135 1.6 6.4 0.00 0.00 0.00 62 1011.4
20260504232518 18 0 3.2 6.4 0.00 0.00 0.00 61 1011.4
20260504232010 18 131 0.0 12.9 0.00 0.00 0.00 59 1011.4
20260504231529 18 134 3.2 12.9 0.00 0.00 0.00 57 1011.4
20260504231008 18 132 1.6 9.7 0.00 0.00 0.00 57 1011.3
20260504230509 18 0 0.0 6.4 0.00 0.00 0.00 55 1011.3
20260504230030 18 234 1.6 12.9 0.00 0.00 0.00 55 1011.4
20260504225511 19 0 1.6 12.9 0.00 0.00 0.00 54 1011.4
20260504225116 19 166 3.2 12.9 0.00 0.00 0.00 54 1011.3
20260504224533 19 0 1.6 12.9 0.00 0.00 0.00 53 1011.4
20260504224011 19 163 1.6 12.9 0.00 0.00 0.00 52 1011.4
20260504223610 19 117 1.6 8.0 0.00 0.00 0.00 51 1011.4
20260504223029 20 0 0.0 6.4 0.00 0.00 0.00 51 1011.3
20260504222728 20 215 3.2 11.3 0.00 0.00 0.00 49 1011.3
20260504222042 20 205 0.0 11.3 0.00 0.00 0.00 49 1011.3
20260504221528 20 161 3.2 11.3 0.00 0.00 0.00 47 1011.3
20260504221010 20 162 1.6 9.7 0.00 0.00 0.00 48 1011.2
20260504220750 20 0 3.2 11.3 0.00 0.00 0.00 47 1011.2
20260504220553 20 0 3.2 11.3 0.00 0.00 0.00 47 1011.2
20260504220138 20 213 4.8 11.3 0.00 0.00 0.00 46 1011.2
20260504215508 20 104 1.6 11.3 0.00 0.00 0.00 47 1011.1
20260504215012 20 149 1.6 11.3 0.00 0.00 0.00 47 1011.2
20260504214530 20 134 3.2 12.9 0.00 0.00 0.00 46 1011.3
20260504214008 20 156 3.2 14.5 0.00 0.00 0.00 45 1011.3
20260504213649 20 275 4.8 14.5 0.00 0.00 0.00 45 1011.3
20260504213514 20 275 4.8 14.5 0.00 0.00 0.00 45 1011.3
20260504213033 20 146 6.4 14.5 0.00 0.00 0.00 45 1011.3
20260504212749 21 249 3.2 16.1 0.00 0.00 0.00 45 1011.3
20260504212208 21 130 4.8 16.1 0.00 0.00 0.00 45 1011.3
20260504211610 21 144 6.4 16.1 0.00 0.00 0.00 45 1011.3
20260504211010 21 163 6.4 14.5 0.00 0.00 0.00 44 1011.2
20260504210643 21 248 3.2 12.9 0.00 0.00 0.00 44 1011.3
20260504205510 22 126 1.6 9.7 0.00 0.00 0.00 33 1011.2
20260504205008 22 277 1.6 12.9 0.00 0.00 0.00 40 1011.2
20260504204530 22 0 1.6 14.5 0.00 0.00 0.00 41 1011.3
20260504204010 22 244 3.2 14.5 0.00 0.00 0.00 31 1011.2
20260504203508 22 252 3.2 12.9 0.00 0.00 0.00 31 1011.2
20260504203028 22 241 3.2 11.3 0.00 0.00 0.00 32 1011.3
20260504202544 22 155 3.2 11.3 0.00 0.00 0.00 32 1011.3
20260504202239 22 169 4.8 11.3 0.00 0.00 0.00 32 1011.3
20260504201732 22 0 4.8 14.5 0.00 0.00 0.00 32 1011.3
20260504201315 22 242 3.2 17.7 0.00 0.00 0.00 32 1011.3
20260504200534 22 128 4.8 17.7 0.00 0.00 0.00 32 1011.2
20260504200245 22 178 4.8 16.1 0.00 0.00 0.00 33 1011.4
20260504195743 22 273 4.8 16.1 0.00 0.00 0.00 31 1011.3
20260504195109 22 182 3.2 16.1 0.00 0.00 0.00 31 1011.4
20260504194626 23 192 4.8 12.9 0.00 0.00 0.00 31 1011.6
20260504194008 23 313 1.6 12.9 0.00 0.00 0.00 33 1011.5
20260504193638 22 26 4.8 12.9 0.00 0.00 0.00 32 1011.4
20260504193028 23 175 1.6 11.3 0.00 0.00 0.00 35 1011.6
20260504192710 23 94 1.6 14.5 0.00 0.00 0.00 34 1011.7
20260504192010 22 342 3.2 14.5 0.00 0.00 0.00 35 1011.8
20260504191528 22 223 3.2 14.5 0.00 0.00 0.00 33 1011.8
20260504191016 22 142 3.2 11.3 0.00 0.00 0.00 33 1011.9
20260504191011 22 247 1.6 14.5 0.00 0.00 0.00 35 1012.0
20260504190030 22 200 3.2 14.5 0.00 0.00 0.00 35 1012.0
20260504185510 23 187 4.8 12.9 0.00 0.00 0.00 33 1012.1
20260504185008 23 115 1.6 9.7 0.00 0.00 0.00 35 1012.1
20260504184729 22 252 3.2 11.3 0.00 0.00 0.00 31 1012.2
20260504184137 22 239 3.2 11.3 0.00 0.00 0.00 33 1012.2
20260504175704 22 290 3.2 9.7 0.00 0.00 0.00 33 1012.7
20260504175210 22 168 1.6 11.3 0.00 0.00 0.00 33 1012.7
20260504175012 22 168 1.6 11.3 0.00 0.00 0.00 33 1012.7
20260504174532 22 293 3.2 11.3 0.00 0.00 0.00 32 1012.9
20260504174150 22 0 3.2 11.3 0.00 0.00 0.00 34 1013.0
20260504174010 22 0 3.2 11.3 0.00 0.00 0.00 34 1013.0
20260504173509 22 352 1.6 9.7 0.00 0.00 0.00 34 1013.0
20260504173028 22 262 3.2 14.5 0.00 0.00 0.00 34 1013.2
20260504172619 22 294 3.2 14.5 0.00 0.00 0.00 34 1013.3
20260504172202 21 187 4.8 14.5 0.00 0.00 0.00 34 1013.4
20260504171619 22 250 4.8 11.3 0.00 0.00 0.00 34 1013.4
20260504171013 22 237 3.2 11.3 0.00 0.00 0.00 33 1013.5
20260504170725 22 198 3.2 9.7 0.00 0.00 0.00 34 1013.5
20260504160121 21 259 3.2 11.3 0.00 0.00 0.00 41 1014.2
20260504151012 19 97 3.2 8.0 0.00 0.00 0.00 46 1014.7
20260504150616 20 291 3.2 12.9 0.00 0.00 0.00 46 1014.7
20260504150118 18 0 1.6 14.5 0.00 0.00 0.00 48 1014.7
20260504141011 17 299 4.8 16.1 0.00 0.00 0.00 51 1015.0
20260504140508 17 297 3.2 11.3 0.00 0.00 0.00 52 1015.0
20260504140244 17 245 3.2 11.3 0.00 0.00 0.00 52 1015.1
20260504130640 16 215 3.2 14.5 0.00 0.00 0.00 54 1015.4
20260504130510 16 215 3.2 14.5 0.00 0.00 0.00 54 1015.4
20260504110511 6 0 0.0 0.0 0.00 0.00 0.00 88 1016.4
20260504100510 3 0 0.0 0.0 0.00 0.00 0.00 89 1016.5